Powrót do katalogu

ATLAS 5 CENTAUR DEB

LostHEO
NORAD 44660·DEBRIS·🇺🇸 United States

Wystrzelony Oct 17, 2018 z Cape Canaveral Space Force Station

Loading…

Następne Przeloty (najbliższe 24 godziny)

TLE

NieaktualneSource: Space-Track

Epoka: Nov 22, 2025, 07:18 UTC

1 44660U 18079W   25326.30417619 -.00000094  00000-0  00000-0 0  9998
2 44660  12.9023  40.4823 4824392 315.9080  14.5411  1.84826058 28567

Śledź ATLAS 5 CENTAUR DEB w czasie rzeczywistym z AllMySat

Download on the App Store